DW1377 Weather Reports


Display with metric or nautical units.
time (UTC)temp
F
wind
direction
speed
MPH
gust
MPH
rain 1hr
in
rain 24hr
in
rain mn
in
humidity
%
barometer
mb
20201127083049 56 268 0.0 0.0 0.00 0.00 0.00 73 1015.7
20201127081513 56 268 0.0 0.0 0.00 0.00 0.00 73 1015.8
20201127080145 56 267 0.0 0.0 0.00 0.00 0.00 73 1015.8
20201127074520 55 268 0.0 0.0 0.00 0.00 0.00 73 1015.8
20201127073156 55 268 0.0 0.0 0.00 0.00 0.00 73 1015.8
20201127071636 55 268 0.0 0.0 0.00 0.00 0.00 73 1015.8
20201127070024 55 268 0.0 0.0 0.00 0.00 0.00 73 1015.8
20201127064626 55 267 0.0 0.0 0.00 0.00 0.00 73 1015.7
20201127063049 55 267 0.0 0.0 0.00 0.00 0.00 73 1015.6
20201127061544 56 267 0.0 0.0 0.00 0.00 0.00 73 1015.6
20201127060137 56 268 0.0 0.0 0.00 0.00 0.00 73 1015.6
20201127054622 56 267 0.0 0.0 0.00 0.00 0.00 73 1015.6
20201127053025 56 268 0.0 0.0 0.00 0.00 0.21 73 1015.8
20201127051603 56 268 0.0 0.0 0.00 0.00 0.21 73 1015.7
20201127050027 57 268 0.0 0.0 0.00 0.00 0.21 73 1015.8
20201127044624 57 268 0.0 0.0 0.00 0.00 0.21 73 1015.8
20201127043051 58 267 0.0 0.0 0.00 0.00 0.21 73 1015.8
20201127041528 58 268 0.0 0.0 0.00 0.00 0.21 72 1015.8
20201127034615 59 267 0.0 0.0 0.00 0.00 0.21 72 1015.9
20201127033037 59 268 0.0 0.0 0.00 0.00 0.21 72 1015.7
20201127031635 60 268 0.0 0.0 0.00 0.00 0.21 72 1015.9
20201127030111 60 267 0.0 0.0 0.00 0.00 0.21 72 1015.9
20201127024542 60 268 0.0 0.0 0.00 0.00 0.21 72 1016.0
20201127023129 60 267 0.0 0.0 0.00 0.00 0.21 72 1015.9
20201127021611 60 267 0.0 0.0 0.00 0.00 0.21 72 1015.9
20201127020033 60 267 0.0 0.0 0.00 0.00 0.21 71 1016.0
20201127014716 60 267 0.0 0.0 0.00 0.00 0.21 71 1016.0
20201127013130 61 268 0.0 0.0 0.00 0.00 0.21 71 1016.0
20201127011548 61 267 0.0 0.0 0.00 0.00 0.21 71 1015.7
20201127004643 61 268 0.0 0.0 0.00 0.00 0.21 70 1015.7
20201127003111 61 268 0.0 0.0 0.00 0.00 0.21 68 1015.6
20201127001519 62 268 0.0 0.0 0.00 0.00 0.21 68 1015.6
20201127000257 62 268 0.0 0.0 0.00 0.00 0.21 66 1015.5
20201126234532 63 268 0.0 0.0 0.00 0.00 0.21 66 1015.6
20201126233020 63 268 0.0 0.0 0.00 0.00 0.21 67 1015.5
20201126231735 63 268 0.0 0.0 0.00 0.00 0.21 68 1015.5
20201126230157 64 268 0.0 0.0 0.00 0.00 0.21 70 1015.4
20201126223054 65 268 0.0 0.0 0.00 0.00 0.21 70 1015.0
20201126221555 65 268 0.0 0.0 0.00 0.00 0.21 69 1014.9
20201126214629 67 284 2.0 0.0 0.00 0.00 0.21 68 1014.8
20201126213125 67 219 1.0 0.0 0.00 0.00 0.21 68 1014.9
20201126211517 67 258 1.0 0.0 0.00 0.00 0.21 68 1014.9
20201126210124 67 270 2.0 0.0 0.00 0.00 0.21 67 1014.8
20201126204557 68 269 3.0 0.0 0.00 0.00 0.21 66 1014.7
20201126203202 69 237 4.0 0.0 0.00 0.00 0.21 65 1014.7
20201126201637 69 266 2.0 0.0 0.00 0.00 0.21 66 1014.7
20201126200048 69 279 2.0 0.0 0.00 0.00 0.21 66 1014.5
20201126194713 68 300 2.0 0.0 0.00 0.00 0.21 67 1014.7
20201126193109 68 271 4.0 0.0 0.00 0.00 0.21 68 1014.9
20201126191602 68 254 2.0 0.0 0.00 0.00 0.21 69 1014.9
20201126184558 68 244 3.0 0.0 0.00 0.00 0.21 68 1014.9
20201126183116 69 279 5.0 0.0 0.00 0.00 0.21 67 1014.9
20201126181531 70 269 5.0 0.0 0.00 0.00 0.21 64 1015.0
20201126180132 71 232 3.0 0.0 0.00 0.00 0.21 63 1015.1
20201126174529 71 94 3.0 0.0 0.00 0.00 0.21 64 1015.0
20201126173117 71 259 4.0 0.0 0.00 0.00 0.21 64 1015.2
20201126171657 71 267 3.0 0.0 0.00 0.00 0.21 65 1015.4
20201126170026 71 221 3.0 0.0 0.00 0.00 0.21 64 1015.5
20201126164625 70 294 2.0 0.0 0.00 0.00 0.21 65 1016.0
20201126163050 70 193 2.0 0.0 0.00 0.00 0.21 66 1016.2
20201126161600 71 76 2.0 0.0 0.00 0.00 0.21 65 1016.5
20201126154719 69 321 1.0 0.0 0.00 0.00 0.21 65 1017.2
20201126153112 68 268 2.0 0.0 0.00 0.00 0.21 65 1017.4
20201126150108 68 333 2.0 0.0 0.00 0.00 0.21 64 1017.7
20201126144533 68 271 2.0 0.0 0.00 0.00 0.21 64 1017.7
20201126143317 67 267 2.0 0.0 0.00 0.00 0.21 69 1017.7
20201126141613 65 267 1.0 0.0 0.00 0.00 0.21 70 1017.8
20201126140056 65 173 2.0 0.0 0.00 0.00 0.21 70 1017.8
20201126134625 64 186 2.0 0.0 0.00 0.00 0.21 70 1017.7
20201126133108 63 140 1.0 0.0 0.00 0.00 0.21 70 1017.7
20201126131538 63 360 2.0 0.0 0.00 0.00 0.21 69 1017.6
20201126130236 63 163 1.0 0.0 0.00 0.00 0.21 68 1017.5
20201126124612 63 261 2.0 0.0 0.00 0.00 0.20 66 1017.4
20201126121631 64 116 2.0 0.0 0.00 0.00 0.09 65 1017.3
20201126120042 64 238 2.0 0.0 0.00 0.00 0.07 65 1017.2
20201126114744 64 123 2.0 0.0 0.00 0.00 0.07 65 1017.2
20201126113121 64 186 2.0 0.0 0.00 0.00 0.07 65 1017.2
20201126111630 63 360 2.0 0.0 0.00 0.00 0.07 65 1017.3
20201126104657 63 205 1.0 0.0 0.00 0.00 0.07 66 1017.4
20201126103058 62 226 1.0 0.0 0.00 0.00 0.07 66 1017.6
20201126101645 62 77 1.0 0.0 0.00 0.00 0.07 67 1017.7
20201126100101 62 54 1.0 0.0 0.00 0.00 0.07 67 1017.7
20201126093135 63 180 2.0 0.0 0.00 0.00 0.07 70 1017.4
20201126091547 65 173 5.0 0.0 0.00 0.00 0.00 67 1017.9
20201126084601 64 184 2.0 0.0 0.00 0.00 0.00 67 1017.4